EW2898 Weather Reports


time (UTC)temp
F
wind
direction
speed
knots
gust
knots
rain 1hr
in
rain 24hr
in
rain mn
in
humidity
%
barometer
mb
20260503212017 61 0 0.0 0.0 0.00 0.00 0.00 99 1021.5
20260503210903 61 0 0.0 0.0 0.00 0.00 0.00 99 1021.6
20260503210003 60 0 0.0 0.0 0.00 0.00 0.00 99 1021.4
20260503205404 60 0 0.0 0.0 0.00 0.00 0.00 99 1021.3
20260503204716 60 0 0.0 0.0 0.00 0.00 0.00 99 1021.3
20260503203603 60 0 0.0 0.0 0.00 0.00 0.00 99 1021.2
20260503202703 60 0 0.0 0.0 0.00 0.00 0.00 99 1021.2
20260503201803 60 0 0.0 0.0 0.00 0.00 0.00 99 1021.5
20260503200903 61 0 0.0 0.0 0.00 0.00 0.00 99 1021.2
20260503200003 62 0 0.0 0.0 0.00 0.00 0.00 99 1021.1
20260503195617 62 0 0.0 0.0 0.00 0.00 0.00 99 1021.2
20260503194503 60 0 0.0 0.0 0.00 0.00 0.00 99 1021.0
20260503193603 61 0 0.0 0.0 0.00 0.00 0.00 99 1020.9
20260503192703 62 0 0.0 0.0 0.00 0.00 0.00 99 1020.9
20260503191803 62 0 0.0 0.0 0.00 0.00 0.00 99 1020.7
20260503190903 62 0 0.0 0.0 0.00 0.00 0.00 99 1020.6
20260503190003 62 0 0.0 0.0 0.00 0.00 0.00 99 1020.5
20260503185403 63 0 0.0 0.0 0.00 0.00 0.00 99 1020.6
20260503184503 62 0 0.0 0.0 0.00 0.00 0.00 99 1020.5
20260503183603 62 0 0.0 0.0 0.00 0.00 0.00 99 1020.5
20260503182916 63 0 0.0 0.0 0.00 0.00 0.00 99 1020.3
20260503181804 63 0 0.0 0.0 0.00 0.00 0.00 99 1020.4
20260503180903 64 0 0.0 0.0 0.00 0.00 0.00 99 1020.5
20260503180219 64 0 0.0 0.0 0.00 0.00 0.00 99 1020.4
20260503175618 64 0 0.0 0.0 0.00 0.00 0.00 99 1020.4
20260503174503 64 0 0.0 0.0 0.00 0.00 0.00 99 1020.2
20260503173603 65 0 0.0 0.0 0.00 0.00 0.00 99 1020.6
20260503172703 64 0 0.0 0.0 0.00 0.00 0.00 99 1020.3
20260503171804 63 0 0.0 0.0 0.00 0.00 0.00 99 1020.6
20260503170903 64 0 0.0 0.0 0.00 0.00 0.00 99 1020.6
20260503150903 71 0 0.0 0.0 0.00 0.00 0.00 99 1022.4
20260503150217 71 0 0.0 0.0 0.00 0.00 0.00 99 1022.9
20260503130903 70 0 0.0 0.0 0.00 0.00 0.00 99 1025.4
20260503081117 62 0 0.0 0.0 0.00 0.00 0.00 99 1026.5
20260503072703 59 0 0.0 0.0 0.00 0.00 0.00 99 1026.3
20260503071803 59 0 0.0 0.0 0.00 0.00 0.00 99 1025.9
20260503070903 58 0 0.0 0.0 0.00 0.00 0.00 99 1025.7
20260503054503 53 0 0.0 0.0 0.00 0.00 0.00 99 1023.4
20260503053603 53 0 0.0 0.0 0.00 0.00 0.00 99 1023.1
20260503052917 53 0 0.0 0.0 0.00 0.00 0.00 99 1022.8
20260503051804 51 0 0.0 0.0 0.00 0.00 0.00 99 1022.7
20260503050903 51 0 0.0 0.0 0.00 0.00 0.00 99 1022.7
20260503050003 51 0 0.0 0.0 0.00 0.00 0.00 99 1023.0
20260503045403 50 0 0.0 0.0 0.00 0.00 0.00 99 1022.7
20260503044503 51 0 0.0 0.0 0.00 0.00 0.00 99 1022.5
20260503043818 50 0 0.0 0.0 0.00 0.00 0.00 99 1022.5
20260503042703 49 0 0.0 0.0 0.00 0.00 0.00 99 1022.5
20260503041803 49 0 0.0 0.0 0.00 0.00 0.00 99 1022.3
20260503040903 49 0 0.0 0.0 0.00 0.00 0.00 99 1022.2
20260503040003 49 0 0.0 0.0 0.00 0.00 0.00 99 1022.1
20260503035403 50 0 0.0 0.0 0.00 0.00 0.00 99 1022.0
20260503034503 49 0 0.0 0.0 0.00 0.00 0.00 99 1021.9
20260503033603 49 0 0.0 0.0 0.00 0.00 0.00 99 1022.2
20260503032703 49 0 0.0 0.0 0.00 0.00 0.00 99 1021.8
20260503031803 49 0 0.0 0.0 0.00 0.00 0.00 99 1021.8
20260503031118 49 0 0.0 0.0 0.00 0.00 0.00 99 1022.0
20260503030217 49 0 0.0 0.0 0.00 0.00 0.00 99 1021.9
20260503025616 49 0 0.0 0.0 0.00 0.00 0.00 99 1022.0
20260503024503 49 0 0.0 0.0 0.00 0.00 0.00 99 1022.0
20260503023603 50 0 0.0 0.0 0.00 0.00 0.00 99 1022.2
20260503022916 50 0 0.0 0.0 0.00 0.00 0.00 99 1022.2
20260503022018 50 0 0.0 0.0 0.00 0.00 0.00 99 1022.2
20260503020904 51 0 0.0 0.0 0.00 0.00 0.00 99 1022.4
20260503020003 51 0 0.0 0.0 0.00 0.00 0.00 99 1022.3
20260503015403 51 0 0.0 0.0 0.00 0.00 0.00 99 1022.3
20260503014503 51 0 0.0 0.0 0.00 0.00 0.00 99 1022.3
20260503013817 51 0 0.0 0.0 0.00 0.00 0.00 99 1022.2
20260503012703 51 0 0.0 0.0 0.00 0.00 0.00 99 1022.4
20260503011803 51 0 0.0 0.0 0.00 0.00 0.00 99 1022.3
20260503010903 52 0 0.0 0.0 0.00 0.00 0.00 99 1022.7
20260503010003 52 0 0.0 0.0 0.00 0.00 0.00 99 1022.5
20260503005403 53 0 0.0 0.0 0.00 0.00 0.00 99 1022.4
20260503004503 52 0 0.0 0.0 0.00 0.00 0.00 99 1022.7
20260503003603 53 0 0.0 0.0 0.00 0.00 0.00 99 1022.8
20260503002703 54 0 0.0 0.0 0.00 0.00 0.00 99 1023.2
20260503002017 54 0 0.0 0.0 0.00 0.00 0.00 99 1023.1
20260503000903 54 0 0.0 0.0 0.00 0.00 0.00 99 1023.1
20260503000003 53 0 0.0 0.0 0.00 0.00 0.00 99 1023.1
20260502235403 54 0 0.0 0.0 0.00 0.00 0.00 99 1023.3
20260502234503 54 0 0.0 0.0 0.00 0.00 0.00 99 1023.2
20260502233818 54 0 0.0 0.0 0.00 0.00 0.00 99 1023.3
20260502232703 56 0 0.0 0.0 0.00 0.00 0.00 99 1023.5
20260502231803 56 0 0.0 0.0 0.00 0.00 0.00 99 1023.2
20260502230903 56 0 0.0 0.0 0.00 0.00 0.00 99 1023.4
20260502230003 56 0 0.0 0.0 0.00 0.00 0.00 99 1023.4
20260502225403 56 0 0.0 0.0 0.00 0.00 0.00 99 1023.5
20260502224718 57 0 0.0 0.0 0.00 0.00 0.00 99 1023.5
20260502223603 56 0 0.0 0.0 0.00 0.00 0.00 99 1023.4
20260502222703 57 0 0.0 0.0 0.00 0.00 0.00 99 1023.5
20260502221803 57 0 0.0 0.0 0.00 0.00 0.00 99 1023.5
20260502220903 59 0 0.0 0.0 0.00 0.00 0.00 99 1023.3
20260502220004 59 0 0.0 0.0 0.00 0.00 0.00 99 1023.6
20260502215403 59 0 0.0 0.0 0.00 0.00 0.00 99 1023.6
20260502214503 58 0 0.0 0.0 0.00 0.00 0.00 99 1023.3
20260502213817 59 0 0.0 0.0 0.00 0.00 0.00 99 1023.4
20260502212916 59 0 0.0 0.0 0.00 0.00 0.00 99 1023.5